Theta_e
349 347 350 349 351 352 352 352 352 349 345 347 349 350 351 350 348 349 353 353 352 352 353 353 353 352 352 347 348 340 339 340 340 341 343 344 344 345 348 349 347 349 344
348 349 347 349 350 352 352 352 351 350 350 351 350 348 350 350 351 353 352 352 351 353 352 351 351 351 351 348 345 345 341 342 343 342 344 346 347 346 351 348 345 347 348
348 350 346 348 351 352 349 348 351 348 345 350 350 350 352 352 352 352 352 353 352 352 352 352 351 350 350 350 346 346 344 343 346 344 346 341 342 347 347 350 348 348 347
348 349 349 350 348 351 349 350 353 352 352 350 353 352 350 345 348 352 352 352 349 350 351 351 350 349 348 343 343 343 344 344 345 345 344 339 340 347 349 350 347 347 346
346 349 350 349 350 351 348 351 352 341 347 346 346 351 352 351 352 352 350 350 351 351 351 350 350 350 345 342 343 344 345 345 346 348 346 345 342 341 347 348 347 346 346
345 350 347 348 352 348 350 351 348 340 350 349 351 350 348 348 346 344 352 351 348 348 347 347 351 350 350 344 343 344 344 344 347 345 346 348 346 344 342 349 349 347 342
349 349 350 350 350 350 347 343 335 348 350 349 351 350 350 351 351 347 345 345 345 343 341 342 343 343 342 342 342 342 342 342 343 342 345 344 347 345 343 346 347 347 348
346 347 348 350 350 347 337 349 348 349 349 351 351 346 349 349 350 347 343 342 341 340 339 339 340 340 341 339 340 339 340 341 343 343 344 344 343 346 345 344 346 346 345
345 347 349 350 352 349 343 349 349 350 348 348 347 344 343 343 341 337 336 334 334 333 333 332 335 337 337 339 338 338 341 343 343 343 344 344 342 343 343 338 347 346 346
345 347 348 351 352 348 343 346 349 348 340 338 341 342 344 345 345 343 341 341 341 335 335 336 339 341 342 342 339 341 344 338 343 343 343 344 345 344 342 337 345 345 341
348 348 349 349 348 346 347 346 338 336 336 338 341 343 344 345 346 347 348 348 349 348 347 347 348 348 348 343 339 344 345 342 341 336 342 344 344 339 343 345 339 340 341
349 348 347 347 346 347 346 341 340 345 346 345 345 346 346 347 348 348 347 347 346 344 347 347 346 346 348 339 340 344 343 343 345 345 343 343 344 341 341 346 344 340 341
348 347 346 346 343 341 339 340 343 345 343 344 348 349 347 349 346 347 348 348 347 348 346 341 344 347 347 344 345 344 345 344 344 343 343 343 342 337 339 346 347 345 341
348 347 349 343 338 342 346 347 347 346 344 346 348 348 348 348 348 349 349 348 347 346 346 346 347 347 347 346 345 344 346 346 345 344 343 343 338 340 346 346 346 344 343
346 348 348 344 345 346 346 346 347 345 345 347 348 348 349 350 351 350 351 349 347 345 348 348 348 347 347 348 346 346 344 342 342 343 343 344 343 342 342 339 343 344 344
347 348 348 347 346 346 347 345 344 344 346 348 349 350 349 349 349 349 349 350 349 347 347 348 347 347 348 349 347 344 344 343 343 339 339 342 344 345 344 342 344 344 343
347 348 349 348 347 344 340 342 346 347 347 347 347 347 347 348 348 349 350 351 350 349 349 348 347 347 348 348 348 343 344 346 343 341 341 340 343 343 344 345 345 344 347
346 346 348 346 346 346 344 344 346 345 346 345 345 344 343 344 347 348 350 353 352 350 349 349 348 342 346 348 346 345 346 345 341 343 341 340 339 341 342 341 341 340 341
343 341 345 345 346 343 344 344 344 345 345 344 344 344 343 343 345 346 348 353 352 352 351 348 346 347 342 341 340 342 344 340 342 341 340 339 341 341 340 339 340 338 340
339 338 338 342 345 344 344 343 343 344 344 344 344 343 342 345 345 343 345 351 353 352 353 351 348 350 346 347 346 345 343 341 341 340 340 339 340 340 341 340 340 340 340
341 336 338 338 341 345 344 343 341 339 342 341 342 341 343 345 344 344 345 346 352 352 353 353 351 349 348 348 347 344 342 341 341 342 341 341 340 340 335 333 329 330 331
340 341 336 338 337 338 345 344 341 337 336 338 339 341 342 345 344 342 346 347 350 351 348 351 350 350 349 349 347 343 345 342 340 343 342 338 336 332 331 329 328 330 331
341 340 338 335 336 339 340 345 341 339 340 339 337 339 343 344 342 347 347 347 347 350 339 346 343 349 349 347 347 345 347 345 341 341 340 333 333 329 329 327 326 328 329
343 343 340 333 335 339 342 343 341 341 342 341 338 339 339 342 345 348 350 349 347 350 346 344 345 348 348 346 345 344 343 343 345 340 336 334 333 330 328 327 326 325 328
344 343 340 338 337 342 342 342 344 341 342 343 342 341 342 342 345 347 350 352 350 350 348 348 349 347 346 344 342 342 342 341 341 338 338 335 330 328 326 327 327 324 326
344 344 343 341 342 342 342 343 344 345 343 343 343 343 342 343 347 346 347 351 350 348 348 351 347 345 344 342 341 341 339 338 337 336 335 332 329 325 324 324 324 325 322
Wind_Speed
10 13 14 17 17 18 17 18 19 18 18 17 15 15 14 14 15 14 14 13 13 12 13 13 11 9 10 11 9 6 6 7 6 6 6 5 5 7 6 4 5 7 7
12 13 15 15 16 17 16 17 17 18 17 16 15 14 14 14 13 13 12 13 12 12 12 13 11 10 9 9 8 7 7 6 6 6 4 3 2 3 4 2 3 5 3
14 14 14 14 15 15 16 15 17 16 16 14 16 14 13 13 13 13 12 12 11 11 11 12 11 9 8 8 8 7 6 5 6 5 4 3 3 1 1 2 1 2 2
16 15 15 14 13 14 14 14 15 16 15 14 14 13 12 12 11 11 10 11 11 12 11 11 11 10 8 8 7 7 7 6 5 6 6 6 4 2 3 2 1 2 2
15 15 13 13 12 13 14 12 13 13 14 12 12 11 11 11 11 10 10 11 10 10 10 10 10 9 7 6 5 6 6 7 8 8 9 8 5 5 5 5 4 6 5
14 14 12 12 11 12 13 12 11 13 13 11 11 10 10 9 9 10 9 8 8 8 8 8 8 8 7 6 6 6 7 8 10 12 13 11 9 7 6 6 7 7 6
15 14 11 11 12 10 10 9 11 12 11 10 11 11 10 9 8 7 6 6 6 6 5 6 6 6 6 6 7 8 9 10 12 13 9 7 9 9 7 7 8 8 8
17 14 12 11 11 10 10 9 11 9 11 9 8 8 8 7 6 5 4 4 3 3 3 3 4 4 5 4 6 7 8 9 10 9 8 6 7 9 10 8 8 9 9
14 13 12 11 10 8 8 10 10 9 9 8 7 7 7 5 4 4 2 2 2 2 3 3 4 5 6 5 6 7 7 9 7 7 8 8 8 9 11 10 9 10 10
14 12 12 11 10 9 9 9 9 7 7 8 8 7 6 4 3 2 2 3 5 5 4 5 5 5 6 7 7 7 8 9 11 9 11 8 9 10 10 11 10 11 11
13 13 11 11 10 9 10 8 8 8 7 6 5 4 1 1 2 4 6 5 7 8 7 7 6 7 7 8 7 7 8 10 9 9 12 14 13 11 14 11 11 12 13
14 13 12 11 10 9 9 9 9 8 5 4 2 0 2 3 5 6 7 7 8 9 8 7 7 6 8 6 5 6 11 9 13 14 12 12 14 17 15 14 13 13 14
15 13 12 10 10 10 10 9 6 5 7 4 3 4 4 5 6 6 7 7 9 9 7 10 8 8 8 7 8 8 9 8 10 11 14 15 15 13 13 12 14 15 15
15 13 11 11 11 10 8 6 4 4 4 3 1 2 4 4 5 7 8 9 10 9 9 9 9 7 7 8 7 10 11 12 12 12 11 13 13 12 11 12 13 15 16
15 13 12 12 10 8 5 4 6 5 4 2 1 3 3 5 7 10 12 11 12 11 8 7 8 7 7 8 6 8 10 10 11 13 14 13 11 11 12 13 14 14 15
17 16 14 11 11 9 6 7 5 3 1 2 3 3 5 7 8 11 11 12 11 11 10 8 9 9 9 9 10 10 10 10 13 9 10 10 11 12 13 13 14 16 17
20 18 16 11 10 8 6 8 7 3 1 1 3 3 6 8 8 11 10 11 12 11 9 8 7 8 9 8 11 12 11 14 13 13 15 13 13 13 13 15 18 18 18
21 20 16 12 12 11 6 8 6 4 2 1 3 5 10 8 6 11 10 10 12 12 10 8 9 10 9 12 14 12 12 10 8 11 14 11 12 12 13 13 14 14 15
23 20 18 15 13 13 9 8 8 8 6 5 5 6 9 9 9 11 12 9 10 10 12 10 11 12 12 12 12 11 11 11 7 11 13 14 12 10 14 14 17 17 16
25 22 20 19 16 13 11 11 10 12 11 8 7 7 9 13 10 10 11 10 11 9 10 10 10 12 11 12 13 11 13 13 4 11 16 14 12 13 13 16 16 16 16
26 27 25 23 20 17 15 14 15 16 13 11 8 8 8 10 12 10 13 13 11 12 13 11 13 13 11 11 9 16 13 3 8 8 16 14 10 13 17 17 19 18 18
29 29 31 26 23 22 19 18 17 12 12 12 10 9 8 10 14 13 17 12 11 13 12 10 11 11 8 11 6 5 3 6 2 24 10 11 13 18 18 20 20 20 17
28 29 33 33 27 25 23 21 19 16 13 13 11 10 9 13 16 16 16 11 10 11 12 13 11 9 9 9 10 3 3 2 6 4 3 14 18 20 19 22 18 16 12
29 27 30 35 32 29 26 26 24 21 18 17 14 12 14 13 14 16 14 11 10 11 13 12 11 10 8 7 4 6 3 4 3 4 4 13 21 13 23 22 14 17 13
28 29 29 31 33 32 30 29 28 26 24 21 18 17 16 16 13 12 14 12 9 11 13 11 8 7 7 6 6 5 3 4 3 3 7 18 18 17 23 15 13 23 12
30 30 31 33 35 34 33 32 32 30 28 25 22 20 18 16 12 14 15 10 8 10 8 7 6 6 5 4 4 4 4 2 4 3 3 9 14 24 24 17 17 13 22
Wind_Direction
103 117 105 103 99 97 98 99 98 100 105 108 111 114 112 112 113 111 104 101 99 95 92 89 87 80 89 89 84 81 67 68 73 81 91 98 111 119 111 111 88 80 77
122 122 113 107 104 102 100 99 102 107 105 109 112 115 118 110 108 105 103 100 97 95 90 90 88 87 82 84 83 74 66 63 60 60 67 75 84 128 119 81 68 89 63
123 126 122 112 110 105 104 101 104 103 110 108 114 116 113 114 105 101 99 96 95 90 89 88 88 87 82 80 77 65 57 57 46 34 4 4 352 267 213 139 337 113 133
129 128 126 118 116 110 112 110 107 110 111 111 111 112 108 109 107 105 101 94 88 85 79 79 78 72 70 73 60 45 38 15 0 355 346 339 325 328 283 249 269 231 207
134 129 128 123 119 117 118 116 111 108 106 105 116 116 110 109 108 100 97 91 81 74 71 65 61 59 57 53 44 33 14 3 343 321 309 300 301 302 279 276 273 254 242
135 131 128 129 127 122 117 115 114 113 108 109 110 103 102 99 101 101 94 86 77 70 66 60 53 52 36 32 18 7 356 351 332 314 292 278 273 292 294 278 270 273 263
137 139 138 138 130 124 125 124 117 113 106 108 108 102 102 102 102 100 87 76 73 64 56 50 35 29 39 9 357 351 344 338 335 339 328 295 275 274 291 273 271 268 266
142 151 149 140 136 126 125 114 114 115 107 105 105 114 109 110 105 95 79 70 56 45 39 32 13 358 11 357 335 328 322 325 336 352 345 325 302 272 285 272 273 271 270
151 157 148 142 132 121 125 114 116 111 121 121 111 93 90 92 89 79 59 34 15 2 341 348 342 338 338 343 320 303 319 315 329 321 306 296 289 285 279 275 264 262 265
160 157 152 145 144 139 136 130 121 123 112 113 108 99 94 94 85 59 37 10 5 341 344 349 351 343 342 336 323 332 326 289 296 291 292 289 286 285 278 277 269 272 268
164 161 159 154 148 140 127 126 127 115 111 112 108 96 74 30 3 341 325 317 328 321 322 327 335 333 314 304 315 325 312 305 271 282 284 279 282 286 283 271 265 277 279
169 167 164 160 151 141 138 139 133 128 132 131 130 113 349 6 5 342 332 332 326 321 315 323 341 334 330 340 332 310 309 289 289 280 301 292 286 288 288 275 273 271 270
169 173 167 158 148 145 139 139 133 122 129 119 105 64 40 22 12 352 349 347 346 337 329 330 324 333 331 352 336 329 315 294 296 289 281 293 290 296 293 286 276 269 269
176 176 167 157 152 149 151 150 161 142 170 160 110 27 3 341 342 1 6 4 353 330 329 354 354 343 331 334 336 330 323 311 299 307 302 306 308 294 294 291 281 272 269
182 180 169 162 169 171 177 182 161 152 149 150 58 6 351 1 8 4 4 5 357 11 1 345 355 353 352 340 327 328 326 339 317 307 307 309 305 292 295 300 286 282 287
186 183 175 176 176 176 181 183 166 148 182 301 309 332 341 351 352 358 2 7 5 3 359 347 335 338 342 335 348 344 342 335 343 325 312 301 293 289 284 300 306 290 281
191 186 188 180 175 175 193 203 176 183 302 55 22 349 338 313 322 340 348 358 7 359 359 0 350 331 330 330 338 341 342 339 338 347 328 315 312 309 305 299 297 291 283
195 197 194 199 206 207 200 175 192 222 251 278 338 343 358 355 324 338 340 347 352 359 356 349 351 337 330 331 335 346 349 343 348 359 358 345 333 327 325 327 325 323 313
201 201 203 207 208 202 208 215 226 236 252 268 301 325 342 349 329 332 343 342 345 345 354 350 347 347 344 336 329 327 334 346 0 22 23 3 349 345 337 326 324 316 308
207 207 211 213 211 213 219 229 238 240 247 267 288 310 325 340 324 311 334 340 340 345 352 354 343 341 338 346 341 338 332 326 288 337 354 358 352 347 357 349 344 335 326
215 215 216 216 218 220 225 235 243 246 249 269 272 287 320 341 350 328 317 321 333 340 339 347 348 343 340 344 325 333 331 344 312 17 348 350 9 5 356 0 0 352 346
217 220 221 220 222 226 229 238 243 254 258 263 263 265 296 317 326 323 325 303 316 338 342 349 343 338 329 351 340 325 343 328 46 327 345 9 6 359 2 2 360 359 356
217 221 220 223 226 228 232 237 242 247 255 258 263 271 295 314 324 333 337 324 307 323 335 334 332 340 341 348 2 4 344 307 325 337 3 353 354 354 354 351 351 3 9
217 221 220 223 228 231 232 234 237 242 249 259 266 278 295 310 321 340 336 321 303 315 334 337 344 350 355 8 21 6 347 309 333 321 274 326 341 346 347 345 343 355 341
214 219 220 222 225 230 230 233 238 242 250 260 269 277 292 304 310 321 342 329 314 316 326 342 357 6 11 16 14 6 11 334 263 286 310 324 331 326 337 336 336 337 340
213 219 222 223 226 228 231 235 238 245 250 255 264 273 290 301 309 326 325 326 328 321 333 339 357 9 21 40 47 46 39 349 321 313 290 315 319 323 331 337 333 348 344